Weather History for KSHL - January, 2013

Change the Weather History Date:

Saturday, January 12, 2013

  Actual Average Record
Temperature  
Mean Temperature 14 °F -  
Max Temperature 23 °F - - ()
Min Temperature 5 °F - - ()
Degree Days  
Heating Degree Days 51    
Moisture  
Dew Point 5 °F    
Average Humidity 74    
Maximum Humidity 93    
Minimum Humidity 62    
Precipitation  
Precipitation 0.00 in - - ()
Sea Level Pressure  
Sea Level Pressure 29.92 in    
Wind  
Wind Speed 22 mph (WNW)    
Max Wind Speed 34 mph    
Max Gust Speed 43 mph    
Visibility 9 miles    
Events Rain , Snow    
T = Trace of Precipitation, MM = Missing Value Source: NWS Daily Summary

Daily Weather History Graph

Daily Weather History Graph

Search for Another Location

Airport or City:

Trip Planner

Search our weather history database for the weather conditions in past years. The results will help you decide how hot, cold, wet, or windy it might be!

Date:

Astronomy

Jan. 12, 2013 Rise Set
Actual Time 7:53 AM CST 5:10 PM CST
Civil Twilight 7:21 AM CST 5:42 PM CST
Nautical Twilight 6:46 AM CST 6:17 PM CST
Astronomical Twilight 6:12 AM CST 6:51 PM CST
Moon 8:10 AM CST (1/12) 6:44 PM CST (1/12)
Length of Visible Light 10h 20m
Length of Day
9h 16m
New Moon, 1% of the Moon is Illuminated
Jan 12
New Moon
Jan 18
First Quarter
Jan 26
Full
Feb 3
Last Quarter
Feb 10
New

Hourly Weather History & Observations

Time (CST) Temp. Windchill Dew Point Humidity Pressure Visibility Wind Dir Wind Speed Gust Speed Precip Events Conditions
12:15 AM 23.0 °F 6.0 °F 21.2 °F 93% 29.57 in 10.0 mi West 27.6 mph 34.5 mph N/A   Overcast
12:35 AM 21.2 °F 3.5 °F 19.4 °F 93% 29.58 in 4.0 mi West 27.6 mph 35.7 mph N/A Rain Light Freezing Rain
12:55 AM 21.2 °F 3.3 °F 17.6 °F 86% 29.60 in 7.0 mi West 28.8 mph - N/A Snow Light Snow
1:15 AM 19.4 °F 1.1 °F 15.8 °F 86% 29.63 in 9.0 mi West 27.6 mph 38.0 mph N/A Snow Light Snow
1:35 AM 19.4 °F 1.1 °F 15.8 °F 86% 29.65 in 5.0 mi West 27.6 mph 36.8 mph N/A Snow Light Snow
1:55 AM 17.6 °F -1.6 °F 12.2 °F 79% 29.67 in 10.0 mi West 28.8 mph 34.5 mph N/A Snow Light Snow
2:15 AM 17.6 °F 0.1 °F 10.4 °F 73% 29.69 in 9.0 mi WNW 23.0 mph 36.8 mph N/A   Overcast
2:35 AM 15.8 °F -3.7 °F 10.4 °F 79% 29.70 in 10.0 mi West 27.6 mph 40.3 mph N/A Rain Light Freezing Rain
2:55 AM 15.8 °F -3.7 °F 8.6 °F 73% 29.72 in 10.0 mi WNW 27.6 mph 39.1 mph N/A   Mostly Cloudy
3:15 AM 15.8 °F -3.1 °F 10.4 °F 79% 29.74 in 10.0 mi WNW 25.3 mph 32.2 mph N/A Rain Light Freezing Rain
3:35 AM 15.8 °F -3.4 °F 10.4 °F 79% 29.75 in - West 26.5 mph - N/A Snow Light Snow
3:55 AM 15.8 °F -3.4 °F 10.4 °F 79% 29.76 in 5.0 mi WNW 26.5 mph 33.4 mph N/A Snow Light Snow
4:15 AM 14.0 °F -8.0 °F 6.8 °F 73% 29.77 in 9.0 mi West 34.5 mph 42.6 mph N/A Snow Light Snow
4:35 AM 14.0 °F -5.5 °F 6.8 °F 73% 29.77 in 10.0 mi WNW 25.3 mph 33.4 mph N/A   Overcast
4:55 AM 14.0 °F -3.9 °F 6.8 °F 73% 29.78 in 10.0 mi West 20.7 mph 33.4 mph N/A   Overcast
5:15 AM 14.0 °F -5.8 °F 8.6 °F 79% 29.78 in 10.0 mi West 26.5 mph 33.4 mph N/A Snow Light Snow
5:35 AM 14.0 °F -6.2 °F 6.8 °F 73% 29.79 in 10.0 mi West 27.6 mph 34.5 mph N/A   Mostly Cloudy
5:55 AM 14.0 °F -6.2 °F 6.8 °F 73% 29.81 in 10.0 mi WNW 27.6 mph 35.7 mph N/A   Mostly Cloudy
6:15 AM 12.2 °F -7.9 °F 6.8 °F 79% 29.82 in 10.0 mi WNW 25.3 mph 34.5 mph N/A   Mostly Cloudy
6:35 AM 12.2 °F -6.7 °F 6.8 °F 79% 29.84 in 10.0 mi WNW 21.9 mph 27.6 mph N/A   Overcast
6:55 AM 12.2 °F -5.8 °F 5.0 °F 73% 29.86 in 10.0 mi WNW 19.6 mph - N/A   Mostly Cloudy
7:15 AM 12.2 °F -5.8 °F 5.0 °F 73% 29.87 in 10.0 mi West 19.6 mph - N/A   Mostly Cloudy
7:35 AM 12.2 °F -4.8 °F 5.0 °F 73% 29.88 in 10.0 mi West 17.3 mph 26.5 mph N/A   Overcast
7:55 AM 12.2 °F -6.7 °F 5.0 °F 73% 29.89 in 10.0 mi West 21.9 mph - N/A   Mostly Cloudy
8:15 AM 12.2 °F -4.3 °F 5.0 °F 73% 29.91 in 10.0 mi West 16.1 mph - N/A   Mostly Cloudy
8:35 AM 12.2 °F -5.8 °F 5.0 °F 73% 29.93 in 10.0 mi West 19.6 mph - N/A   Overcast
8:55 AM 12.2 °F -5.8 °F 5.0 °F 73% 29.93 in 10.0 mi WNW 19.6 mph 25.3 mph N/A   Overcast
9:15 AM 12.2 °F -6.3 °F 5.0 °F 73% 29.93 in 10.0 mi WNW 20.7 mph 26.5 mph N/A   Overcast
9:55 AM 12.2 °F -5.3 °F 3.2 °F 67% 29.95 in 10.0 mi WNW 18.4 mph - N/A   Mostly Cloudy
10:15 AM 12.2 °F -6.7 °F 5.0 °F 73% 29.96 in 10.0 mi West 21.9 mph - N/A   Mostly Cloudy
10:35 AM 12.2 °F -5.8 °F 3.2 °F 67% 29.97 in 10.0 mi WNW 19.6 mph 26.5 mph N/A   Overcast
10:55 AM 14.0 °F -3.4 °F 5.0 °F 67% 29.99 in 10.0 mi West 19.6 mph - N/A   Overcast
11:15 AM 14.0 °F -3.4 °F 5.0 °F 67% 29.99 in 10.0 mi West 19.6 mph - N/A   Overcast
11:55 AM 14.0 °F -2.5 °F 6.8 °F 73% 29.98 in 9.0 mi West 17.3 mph 24.2 mph N/A   Overcast
12:15 PM 12.2 °F -4.3 °F 5.0 °F 73% 29.99 in 2.5 mi WNW 16.1 mph 23.0 mph N/A Snow Light Snow
12:55 PM 14.0 °F -2.5 °F 5.0 °F 67% 29.99 in 8.0 mi West 17.3 mph - N/A Snow Light Snow
1:35 PM 14.0 °F -2.0 °F 6.8 °F 73% 29.98 in 2.5 mi WNW 16.1 mph 23.0 mph N/A Snow Light Snow
1:55 PM 14.0 °F -1.4 °F 5.0 °F 67% 29.98 in 8.0 mi WNW 15.0 mph 23.0 mph N/A Rain Light Freezing Rain
2:15 PM 14.0 °F -3.0 °F 5.0 °F 67% 29.99 in 8.0 mi West 18.4 mph 26.5 mph N/A   Overcast
2:35 PM 14.0 °F -2.5 °F 3.2 °F 62% 29.98 in 10.0 mi WNW 17.3 mph 23.0 mph N/A   Mostly Cloudy
2:55 PM 14.0 °F -2.0 °F 5.0 °F 67% 29.98 in 10.0 mi West 16.1 mph - N/A   Overcast
3:15 PM 14.0 °F -1.4 °F 6.8 °F 73% 30.00 in 3.0 mi WNW 15.0 mph - N/A Snow Light Snow
3:35 PM 14.0 °F -2.5 °F 5.0 °F 67% 30.01 in 8.0 mi WNW 17.3 mph - N/A   Overcast
3:55 PM 12.2 °F -4.8 °F 3.2 °F 67% 30.02 in 8.0 mi WNW 17.3 mph 23.0 mph N/A   Overcast
4:15 PM 12.2 °F -4.3 °F 3.2 °F 67% 30.02 in 10.0 mi West 16.1 mph - N/A   Overcast
4:35 PM 12.2 °F -3.1 °F 3.2 °F 67% 30.03 in 10.0 mi WNW 13.8 mph - N/A   Overcast
4:55 PM 12.2 °F -2.5 °F 5.0 °F 73% 30.02 in 10.0 mi WNW 12.7 mph 19.6 mph N/A   Overcast
5:15 PM 12.2 °F -2.5 °F 6.8 °F 79% 30.03 in 7.0 mi WNW 12.7 mph 19.6 mph N/A Rain Light Freezing Rain
5:35 PM 10.4 °F -6.6 °F 5.0 °F 79% 30.02 in 4.0 mi WNW 16.1 mph 24.2 mph N/A Snow Light Snow
5:55 PM 10.4 °F - 3.2 °F 73% 30.03 in 10.0 mi North - - N/A   Overcast
6:15 PM 8.6 °F -6.3 °F 1.4 °F 73% 30.05 in 10.0 mi WNW 11.5 mph 23.0 mph N/A   Mostly Cloudy
6:35 PM 8.6 °F -6.3 °F 1.4 °F 73% 30.06 in 10.0 mi WNW 11.5 mph 17.3 mph N/A   Scattered Clouds
6:55 PM 8.6 °F -8.3 °F 3.2 °F 79% 30.05 in 10.0 mi NW 15.0 mph 23.0 mph N/A   Overcast
7:15 PM 8.6 °F -8.3 °F 1.4 °F 73% 30.05 in 10.0 mi NW 15.0 mph 20.7 mph N/A   Scattered Clouds
7:35 PM 8.6 °F -7.7 °F 1.4 °F 73% 30.06 in 10.0 mi NW 13.8 mph - N/A   Clear
7:55 PM 8.6 °F -6.3 °F 1.4 °F 73% 30.07 in 10.0 mi NW 11.5 mph 17.3 mph N/A   Partly Cloudy
8:15 PM 8.6 °F -4.7 °F 1.4 °F 73% 30.07 in 10.0 mi NW 9.2 mph - N/A   Clear
8:35 PM 6.8 °F -4.8 °F 1.4 °F 79% 30.08 in 10.0 mi WNW 6.9 mph 13.8 mph N/A   Mostly Cloudy
8:55 PM 6.8 °F -7.8 °F 1.4 °F 79% 30.08 in 10.0 mi WNW 10.4 mph - N/A   Overcast
9:15 PM 6.8 °F -10.7 °F 1.4 °F 79% 30.06 in 10.0 mi NW 15.0 mph - N/A   Overcast
9:35 PM 6.8 °F -5.9 °F -0.4 °F 72% 30.09 in 10.0 mi WNW 8.1 mph 13.8 mph N/A   Mostly Cloudy
9:55 PM 6.8 °F -7.8 °F -0.4 °F 72% 30.08 in 10.0 mi WNW 10.4 mph - N/A   Overcast
10:15 PM 6.8 °F -9.3 °F -0.4 °F 72% 30.06 in 10.0 mi NW 12.7 mph - N/A   Overcast
10:35 PM 5.0 °F -11.6 °F -0.4 °F 78% 30.08 in 10.0 mi NW 12.7 mph - N/A   Scattered Clouds
10:55 PM 5.0 °F -13.0 °F -2.2 °F 72% 30.06 in 10.0 mi NNW 15.0 mph - N/A   Clear
11:15 PM 5.0 °F -13.0 °F -2.2 °F 72% 30.08 in 10.0 mi NW 15.0 mph - N/A   Clear
11:35 PM 5.0 °F -13.0 °F -2.2 °F 72% 30.06 in 10.0 mi NNW 15.0 mph - N/A   Partly Cloudy
11:55 PM 5.0 °F -11.6 °F -2.2 °F 72% 30.06 in 10.0 mi NNW 12.7 mph - N/A   Scattered Clouds